Regional Weather Roundup
Issued by NWS Cleveland, OH

Home | Current Version | Previous Version | Graphics & Text | Print | Product List | Glossary On
Versions: 1 2 3 4 5 6 7 8 9 10 11 12 13 14 15 16 17 18 19 20 21 22 23 24 25 26 27 28 29 30 31 32 33 34 35 36 37 38 39 40 41 42 43 44 45 46 47 48 49 50
000
ASUS41 KCLE 301610
RWRCLE
OHIO REGIONAL WEATHER ROUNDUP
NATIONAL WEATHER SERVICE WILMINGTON, OH
1200 PM EDT SAT APR 30 2016

NOTE: "FAIR" INDICATES FEW OR NO CLOUDS BELOW 12,000 FEET WITH NO
SIGNIFICANT WEATHER AND/OR OBSTRUCTIONS TO VISIBILITY.

OHZ001>008-015>018-024>027-034-035-043-044-301700-
   NORTHWEST OHIO

CITY           SKY/WX    TMP DP  RH WIND       PRES   REMARKS
DEFIANCE       PTSUNNY   52  37  56 E13       30.10S
FINDLAY        PTSUNNY   51  40  65 E9        30.07F
TOLEDO EXPRESS FAIR      53  37  54 E12       30.09F
TOLEDO EXEC    FAIR      52  38  58 E8        30.11S
LIMA           LGT RAIN  47  44  90 NE9       30.06F
$$

OHZ009>014-019>023-028>033-038-089-301700-
   NORTHEAST OHIO

CITY           SKY/WX    TMP DP  RH WIND       PRES   REMARKS
CLE-HOPKINS    PTSUNNY   52  44  74 S7        30.14S
CLE-LAKEFRONT  PTSUNNY   53  45  74 N7        30.12S
CUY CO. ARPT   PTSUNNY   59  46  63 E8        30.11F
LORAIN-ELYRIA  PTSUNNY   49  41  74 SE8       30.12S
ASHTABULA      CLOUDY    54  44  69 SE7       30.13F
AKRON-CANTON   CLOUDY    55  46  71 S8        30.10F
WOOSTER        CLOUDY    48  44  86 S6        30.11S
MANSFIELD      FAIR      47  42  83 VRB7      30.09F
YOUNGSTOWN     PTSUNNY   56  45  66 E9        30.10F
$$

OHZ042-051>053-060>062-070>072-077>081-301700-
  SOUTHWEST OHIO

CITY           SKY/WX    TMP DP  RH WIND       PRES   REMARKS
CINC-COVINGTON LGT RAIN  55  52  89 E9        30.04F FOG
CINC-LUNKEN    LGT RAIN  55  52  89 NE3       30.07R FOG
HAMILTON       RAIN      53  50  89 CALM      30.08R FOG
DAYTON         RAIN      51  48  89 SE7       30.07R FOG
WRIGHT-PAT AFB LGT RAIN  52  50  93 SE3       30.07R FOG
DAYTON GENERAL LGT RAIN  52  48  86 SE5       30.07R
WILMINGTON     LGT RAIN  51  48  89 S6        30.08R
$$

OHZ036-037-039>041-045>050-054>059-063>069-073>076-082>088-301700-
  CENTRAL AND SOUTHEAST OHIO

CITY           SKY/WX    TMP DP  RH WIND       PRES   REMARKS
COLUMBUS       LGT RAIN  53  47  79 SE3       30.05S
OSU AIRPORT    LGT RAIN  53  47  79 NE5       30.05S
BOLTON FIELD   LGT RAIN  52  48  87 E5        30.06S
RICKENBACK AFB LGT RAIN  53  48  83 E5        30.06R
NEWARK         CLOUDY    56  46  69 NE7       30.04F
MARION         CLOUDY    49  43  80 E9        30.08F HAZE
LANCASTER      LGT RAIN  55  49  80 E7        30.06R
ZANESVILLE     CLOUDY    60  47  61 E5        30.07F
NEW PHILLY     FAIR      54  45  71 CALM      30.09F
$$




USA.gov is the U.S. government's official web portal to all federal, state and local government web resources and services.